星链-35694(STARLINK-35694)

导读 | 豆包AI

STARLINK-35694是美国SpaceX星链星座中的一颗卫星,于2025年11月8日发射入轨,是星链星座持续组网补网、扩展规模的其中一颗卫星。星链项目旨在构建全球卫星互联网,为全球不同地区提供高速宽带网络服务,该卫星将助力进一步完善星链星座的全球覆盖能力。

基本信息
目录编号:
66389
目录名称:
STARLINK-35694
国际标识:
2025-257K
轨道中心:
EARTH
卫星名称:
星链-35694
卫星全名:
星链-35694(STARLINK-35694)
卫星状态:
在轨 (已飞行126 天)
发射日期:
2025-11-08 UTC
国别 :
美国 (US)
星等 :
--
轨道信息
数据来源 国际轨道数据 AOE轨道数据
星历时间 2026-03-14T01:15:22+0800
12小时前
查看轨道信息
2026-03-11T09:00:00+0800
3天前
查看轨道信息
半长轴 6853.204km 6853.325km
偏心率 0.0001086 0.0001325
轨道倾角 53.158° 53.160°
近地点辐角 88.972° 62.347°
升交点赤经 198.078° 210.514°
平近点角 271.140° 300.864°
近地点 474.322km 474.279km
远地点 475.812km 476.097km
周期 94.102分钟 94.105分钟
每日圈数 15.302497 15.302094
详细信息
固有亮度:
5
最大亮度:
2.5
卫星平台:
Starlink V1.0
覆盖范围:
全球
运营商:
太空探索技术公司
运营商所在国:
美国
制造商(研发单位):
太空探索技术公司
制造商所在国:
美国
使用方式:
暂无
卫星简介
Starlink 计划是 SpaceX 推出的全球卫星互联网项目,通过发射低轨道卫星,为全球尤其是偏远地区提供高速、低延迟的互联网服务。自 2019 年起,Starlink 已部署数千颗卫星,旨在缩小全球数字鸿沟,推动互联网普及。该项目还为军事、航空等行业提供通信支持,带来广泛经济效益。
2D轨道图
3D轨道图
轨道高度分析图
轨道倾角分析图
轨道综合分析图
查看轨道综合分析图